OpenBCM V1.07b12 (Linux)

Packet Radio Mailbox

DB0FHN

[JN59NK Nuernberg]

 Login: GUEST





  
UA9FBV > KEPS     04.05.03 20:40l 276 Lines 7259 Bytes #999 (0) @ AMSAT
BID : ORB03121.D
Read: DB0FHN GUEST
Subj: Orbital Elements  03121.MICROS
Path: DB0FHN<DB0ZWI<DB0HOT<OK0PKL<OK0PPL<RZ6HXA<UA9FBV
Sent: 030502/0522Z @:UA9FBV.PRM.RUS.AS #:34356 [Perm] GATEWAY $:ORB03121.D
From: UA9FBV@UA9FBV.PRM.RUS.AS
To  : KEPS@AMSAT

HR AMSAT ORBITAL ELEMENTS FOR THE MICROSATS
FROM WA5QGD FORT WORTH,TX May 1, 2003
SEND SUBSCRIBE/UNSUBSCRIBE TO majordomo@amsat.org ONLY
BID: ORB03121.D
TO ALL RADIO AMATEURS BT

Satellite: UO-14
Catalog number: 20437
Epoch time:      03121.71502361
Element set:     221
Inclination:       98.2618 deg
RA of node:       161.8390 deg
Eccentricity:    0.0011131
Arg of perigee:   352.8262 deg
Mean anomaly:       7.2761 deg
Mean motion:   14.31262976 rev/day
Decay rate:       1.80e-06 rev/day^2
Epoch rev:           69281
Checksum:              264

Satellite: AO-16
Catalog number: 20439
Epoch time:      03121.64807825
Element set:     887
Inclination:       98.3038 deg
RA of node:       173.8710 deg
Eccentricity:    0.0011047
Arg of perigee:   359.7420 deg
Mean anomaly:       0.3768 deg
Mean motion:   14.31501815 rev/day
Decay rate:       2.05e-06 rev/day^2
Epoch rev:           69284
Checksum:              295

Satellite: WO-18
Catalog number: 20441
Epoch time:      03121.83444462
Element set:      71
Inclination:       98.3187 deg
RA of node:       177.2739 deg
Eccentricity:    0.0011797
Arg of perigee:   359.6917 deg
Mean anomaly:       0.4255 deg
Mean motion:   14.31582462 rev/day
Decay rate:       1.65e-06 rev/day^2
Epoch rev:           69292
Checksum:              309

Satellite: LO-19
Catalog number: 20442
Epoch time:      03121.73471049
Element set:     999
Inclination:       98.3319 deg
RA of node:       180.3316 deg
Eccentricity:    0.0012324
Arg of perigee:   358.0994 deg
Mean anomaly:       2.0133 deg
Mean motion:   14.31746781 rev/day
Decay rate:       1.87e-06 rev/day^2
Epoch rev:           69296
Checksum:              305

Satellite: UO-22
Catalog number: 21575
Epoch time:      03121.39606345
Element set:     787
Inclination:       98.1488 deg
RA of node:       109.9429 deg
Eccentricity:    0.0006551
Arg of perigee:   282.5042 deg
Mean anomaly:      77.5414 deg
Mean motion:   14.39207526 rev/day
Decay rate:       3.80e-06 rev/day^2
Epoch rev:           61861
Checksum:              311

Satellite: KO-23
Catalog number: 22077
Epoch time:      03120.93620512
Element set:    0206
Inclination:      066.0892 deg
RA of node:       336.2754 deg
Eccentricity:    0.0015459
Arg of perigee:   257.6207 deg
Mean anomaly:     102.3081 deg
Mean motion:   12.86411083 rev/day
Decay rate:       -3.7e-07 rev/day^2
Epoch rev:           50348
Checksum:              270

Satellite: AO-27
Catalog number: 22825
Epoch time:      03121.80461472
Element set:     545
Inclination:       98.2663 deg
RA of node:       147.7956 deg
Eccentricity:    0.0009554
Arg of perigee:    47.8916 deg
Mean anomaly:     312.3075 deg
Mean motion:   14.28969504 rev/day
Decay rate:       1.93e-06 rev/day^2
Epoch rev:           50019
Checksum:              319

Satellite: IO-26
Catalog number: 22826
Epoch time:      03121.68354698
Element set:     347
Inclination:       98.2656 deg
RA of node:       148.8273 deg
Eccentricity:    0.0009863
Arg of perigee:    49.1005 deg
Mean anomaly:     311.1025 deg
Mean motion:   14.29195391 rev/day
Decay rate:       2.15e-06 rev/day^2
Epoch rev:           50022
Checksum:              296

Satellite: KO-25
Catalog number: 22828
Epoch time:      03121.64673346
Element set:     485
Inclination:       98.2633 deg
RA of node:       149.0564 deg
Eccentricity:    0.0010824
Arg of perigee:    27.3642 deg
Mean anomaly:     332.8108 deg
Mean motion:   14.29533156 rev/day
Decay rate:       1.97e-06 rev/day^2
Epoch rev:           46842
Checksum:              306

Satellite: TO-31
Catalog number: 25396
Epoch time:      03120.94842882
Element set:    0865
Inclination:      098.6141 deg
RA of node:       196.6096 deg
Eccentricity:    0.0001702
Arg of perigee:   300.0682 deg
Mean anomaly:     060.0329 deg
Mean motion:   14.23533725 rev/day
Decay rate:       -4.3e-07 rev/day^2
Epoch rev:           24968
Checksum:              297

Satellite: GO-32
Catalog number: 25397
Epoch time:      03120.92782127
Element set:    0183
Inclination:      098.6092 deg
RA of node:       195.3800 deg
Eccentricity:    0.0000710
Arg of perigee:   351.2422 deg
Mean anomaly:     008.8741 deg
Mean motion:   14.22976596 rev/day
Decay rate:        7.4e-07 rev/day^2
Epoch rev:           24964
Checksum:              300

Satellite: UO-36
Catalog number: 25693
Epoch time:      03122.02611745
Element set:     933
Inclination:       64.5573 deg
RA of node:       148.9987 deg
Eccentricity:    0.0026808
Arg of perigee:   311.5825 deg
Mean anomaly:      48.2983 deg
Mean motion:   14.76466046 rev/day
Decay rate:       4.19e-06 rev/day^2
Epoch rev:           21695
Checksum:              333

Satellite: AO-37
Catalog number: 26065
Epoch time:      03120.88386301
Element set:     793
Inclination:      100.1984 deg
RA of node:       188.5175 deg
Eccentricity:    0.0037975
Arg of perigee:    87.3459 deg
Mean anomaly:     273.2065 deg
Mean motion:   14.35543870 rev/day
Decay rate:       2.38e-06 rev/day^2
Epoch rev:           17061
Checksum:              319

Satellite: SO-41
Catalog number: 26545
Epoch time:      03121.35122469
Element set:     446
Inclination:       64.5595 deg
RA of node:       171.2699 deg
Eccentricity:    0.0046631
Arg of perigee:   227.2963 deg
Mean anomaly:     132.4174 deg
Mean motion:   14.79168716 rev/day
Decay rate:      1.207e-05 rev/day^2
Epoch rev:           13983
Checksum:              315

Satellite: MO-46
Catalog number: 26548
Epoch time:      03120.58646083
Element set:     449
Inclination:       64.5571 deg
RA of node:       165.7101 deg
Eccentricity:    0.0039777
Arg of perigee:   228.2242 deg
Mean anomaly:     131.5459 deg
Mean motion:   14.81508750 rev/day
Decay rate:      1.514e-05 rev/day^2
Epoch rev:           13988
Checksum:              318

Satellite: SO-42
Catalog number: 26549
Epoch time:      03120.62720844
Element set:    0738
Inclination:      064.5499 deg
RA of node:       177.9712 deg
Eccentricity:    0.0051251
Arg of perigee:   226.8530 deg
Mean anomaly:     132.8276 deg
Mean motion:   14.78096221 rev/day
Decay rate:      1.246e-05 rev/day^2
Epoch rev:           13964
Checksum:              314

Satellite: NO-44
Catalog number: 26931
Epoch time:      03121.81782918
Element set:     463
Inclination:       67.0459 deg
RA of node:        69.6076 deg
Eccentricity:    0.0006060
Arg of perigee:   274.9521 deg
Mean anomaly:      85.0888 deg
Mean motion:   14.29156415 rev/day
Decay rate:       2.83e-06 rev/day^2
Epoch rev:            8267
Checksum:              321

Satellite: AO-49
Catalog number: 27605
Epoch time:      03121.69063663
Element set:     121
Inclination:       64.5555 deg
RA of node:       338.2206 deg
Eccentricity:    0.0035032
Arg of perigee:    80.1548 deg
Mean anomaly:     280.3497 deg
Mean motion:   14.71485164 rev/day
Decay rate:       8.17e-06 rev/day^2
Epoch rev:            1942
Checksum:              292

Satellite: SO-50
Catalog number: 27607
Epoch time:      03120.73548977
Element set:     114
Inclination:       64.5506 deg
RA of node:       342.0553 deg
Eccentricity:    0.0036517
Arg of perigee:    76.9693 deg
Mean anomaly:     283.5474 deg
Mean motion:   14.70065485 rev/day
Decay rate:      1.208e-05 rev/day^2
Epoch rev:            1926
Checksum:              310



Read previous mail | Read next mail


 19.09.2025 17:54:15lGo back Go up